Regional Weather Roundup
Issued by NWS

Home | Current Version | Previous Version | Graphics & Text | Print | Product List | Glossary On
Versions: 1 2 3 4 5 6 7 8 9 10 11 12 13 14 15 16 17 18 19 20 21 22 23 24 25 26 27 28 29 30 31 32 33 34 35 36 37 38 39 40 41 42 43 44 45 46 47 48 49 50
000
ASUS43 KBIS 292302
RWRND

NORTH DAKOTA REGIONAL WEATHER ROUNDUP
NATIONAL WEATHER SERVICE BISMARCK ND
600 PM CDT FRI APR 29 2016

NOTE: "FAIR" INDICATES FEW OR NO CLOUDS BELOW 12,000 FEET WITH NO
SIGNIFICANT WEATHER AND/OR OBSTRUCTIONS TO VISIBILITY.


NDZ001>003-009>011-017-300000-
NORTHWEST NORTH DAKOTA

CITY           SKY/WX    TMP DP  RH WIND       PRES   REMARKS
WILLISTON      CLOUDY    61  26  26 SE14      30.12R
MINOT          SUNNY     65  22  19 E17G23    30.14R
MINOT AFB      SUNNY     62  24  23 SE16G23   30.13R
$$

NDZ018>021-031>035-040>046-300000-
SOUTHWEST NORTH DAKOTA

CITY           SKY/WX    TMP DP  RH WIND       PRES   REMARKS
BISMARCK       MOSUNNY   62  33  33 E17       30.09F
DICKINSON      CLOUDY    55  26  32 E14       30.06F
GARRISON         N/A     61  28  28 E15       30.12R
HETTINGER ARPT MOSUNNY   55  28  35 E15G21    30.07F
$$

NDZ004>008-012>016-024-026-027-054-300000-
NORTHEAST NORTH DAKOTA

CITY           SKY/WX    TMP DP  RH WIND       PRES   REMARKS
GRAND FORKS    MOSUNNY   63  30  28 NE16      30.14S
GRND FRKS AFB  SUNNY     62  29  28 NE15G22   30.15R
DEVILS LAKE    SUNNY     60  29  30 E15G21    30.16S
$$

NDZ022-023-025-028>030-036>039-047>053-300000-
SOUTHEAST NORTH DAKOTA

CITY           SKY/WX    TMP DP  RH WIND       PRES   REMARKS
FARGO          SUNNY     65  31  28 VRB5      30.10R
JAMESTOWN      PTSUNNY   62  31  31 E12       30.11F
$$





USA.gov is the U.S. government's official web portal to all federal, state and local government web resources and services.